Location: Navalespino
(40.5894°N, 4.2660°W)
Time: 22:03:54
(UTC+00:00)

Cosmos 2297 Rocket - Pass Details

Date: 18 April 2024
Orbit: 840 x 841 km, 71.0° (Epoch: 23 May)

Event Time Altitude Azimuth Distance (km) Brightness Sun altitude
Rises 22:15:07 0° 327° (NNW) 3,402 6.5 -31.1°
Reaches altitude 10° 22:17:46 10° 319° (NW) 2,463 5.5 -31.4°
Enters shadow 22:22:31 34° 262° (W) 1,361 3.4 -31.9°
